This is the latest recevied weather packets stored in our database for station/object DC4AT. If no packets are shown the sender has not sent any weather packets the latest 10 day(s).
| Time | Temp. | Humidity | Pressure | Rain* | Wind** | Luminosity | Snow |
|---|---|---|---|---|---|---|---|
| 1777931615 | 12.78° C | 80% | 1012.6 hPa | 0 mm | - | 0 W/m² | - |
| 1777931015 | 12.78° C | 81% | 1012.7 hPa | 0 mm | - | 0 W/m² | - |
| 1777930415 | 13.33° C | 81% | 1012.7 hPa | 0 mm | - | 0 W/m² | - |
| 1777929815 | 13.33° C | 81% | 1012.8 hPa | 0 mm | - | 0 W/m² | - |
| 1777929215 | 13.33° C | 81% | 1012.8 hPa | 0.25 mm | - | 0 W/m² | - |
| 1777928615 | 13.33° C | 81% | 1013 hPa | 0.51 mm | - | 0 W/m² | - |
| 1777928015 | 13.33° C | 81% | 1013.2 hPa | 0.76 mm | - | 0 W/m² | - |
| 1777927415 | 13.33° C | 81% | 1013.3 hPa | 1.52 mm | - | 0 W/m² | - |
| 1777926815 | 13.33° C | 81% | 1013.6 hPa | 1.78 mm | - | 0 W/m² | - |
| 1777926215 | 13.33° C | 81% | 1013.5 hPa | 2.54 mm | - | 0 W/m² | - |
| 1777925615 | 13.89° C | 82% | 1013.3 hPa | 3.3 mm | - | 0 W/m² | - |
| 1777925015 | 13.89° C | 82% | 1013.2 hPa | 3.05 mm | - | 0 W/m² | - |
| 1777924415 | 13.89° C | 82% | 1013.3 hPa | 2.79 mm | - | 0 W/m² | - |
| 1777923815 | 13.89° C | 82% | 1013.2 hPa | 2.29 mm | - | 0 W/m² | - |
| 1777923215 | 13.89° C | 82% | 1013 hPa | 1.78 mm | - | 0 W/m² | - |
| 1777922615 | 13.89° C | 82% | 1013 hPa | 1.02 mm | - | 0 W/m² | - |
| 1777922015 | 14.44° C | 83% | 1013 hPa | 0.25 mm | - | 0 W/m² | - |
| 1777921416 | 14.44° C | 83% | 1013 hPa | 0 mm | - | 0 W/m² | - |
| 1777920816 | 14.44° C | 84% | 1013.1 hPa | 0 mm | - | 0 W/m² | - |
| 1777920216 | 15° C | 84% | 1013.1 hPa | 0 mm | - | 0 W/m² | - |
| 1777919616 | 15° C | 85% | 1013.2 hPa | 0 mm | - | 0 W/m² | - |
| 1777919016 | 15.56° C | 84% | 1012.9 hPa | 0 mm | - | 0 W/m² | - |
| 1777918416 | 16.11° C | 82% | 1012.7 hPa | 0 mm | - | 0 W/m² | - |
| 1777917816 | 16.11° C | 78% | 1012.7 hPa | 0 mm | - | 0 W/m² | - |
| 1777917216 | 16.67° C | 75% | 1012.3 hPa | 0 mm | - | 5 W/m² | - |
* Rain latest hour (hover to see other rain measurements)
** Current wind speed in m/s (hover to see current wind gust speed)